{"data":{"norad_id":67565,"epoch":"2026-05-25T02:28:01.720416Z","epoch_age_seconds":59424,"freshness":"FRESH","line1":"1 67565U 26016E   26145.10279769  .00010546  00000+0  32848-3 0  9996","line2":"2 67565  97.2843 205.4184 0000279 135.8825 224.2440 15.33450400 18572","mean_motion":15.334504,"eccentricity":2.79e-5,"inclination_deg":97.2843,"raan_deg":205.4184,"arg_perigee_deg":135.8825,"mean_anomaly_deg":224.244,"bstar":0.00032848,"rev_number":1857,"period_min":93.905873968927,"perigee_km":465.33616969589,"apogee_km":465.71804615311,"semimajor_km":6843.6641079245,"source":"CELESTRAK","updated_at":"2026-05-25T13:38:21.613327Z"}}